Weather History for New York JFK, NY

Change the Weather History Date:

Sunday, June 16, 2013

  Actual Average Record
Temperature  
Mean Temperature 71 °F 71 °F  
Max Temperature 80 °F 78 °F 92 °F (1962)
Min Temperature 62 °F 63 °F 52 °F (1965)
Degree Days  
Heating Degree Days 0 0  
Month to date heating degree days 10 20  
Since 1 June heating degree days 10 20  
Since 1 July heating degree days 4706 4838  
Cooling Degree Days 6 6  
Month to date cooling degree days 53 70  
Year to date cooling degree days 79 105  
Since 1 June cooling degree days 53 70  
Growing Degree Days 21 (Base 50)    
Moisture  
Dew Point 61 °F    
Average Humidity 71    
Maximum Humidity 90    
Minimum Humidity 51    
Precipitation  
Precipitation T in 0.13 in 1.10 in (1985)
Month to date precipitation 7.34 2.23  
Year to date precipitation 20.59 19.57  
Snow  
Snow 0.00 in 0.00 in - ()
Month to date snowfall 0.0 0.0  
Since 1 July snowfall 17.6 23.8  
Snow Depth 0.00 in    
Sea Level Pressure  
Sea Level Pressure 29.90 in    
Wind  
Wind Speed 11 mph (SW)    
Max Wind Speed 25 mph    
Max Gust Speed 33 mph    
Visibility 10 miles    
Events      
T = Trace of Precipitation, MM = Missing Value Source: NWS Daily Summary

Daily Weather History Graph

Daily Weather History Graph

Search for Another Location

Airport:

Trip Planner

Search our weather history database for the weather conditions in past years. The results will help you decide how hot, cold, wet, or windy it might be!

Date:

Astronomy

Jun. 16, 2013 Rise Set
Actual Time 5:23 AM EDT 8:28 PM EDT
Civil Twilight 4:50 AM EDT 9:01 PM EDT
Nautical Twilight 4:07 AM EDT 9:44 PM EDT
Astronomical Twilight 3:17 AM EDT 10:34 PM EDT
Moon 12:59 PM EDT (6/16) 12:29 AM EDT (6/16)
Length of Visible Light 16h 11m
Length of Day
15h 04m
Waxing Crescent, 49% of the Moon is Illuminated
Jun 16
Waxing Crescent
Jun 16
First Quarter
Jun 23
Full
Jun 30
Last Quarter
Jul 8
New

Hourly Weather History & Observations

Time (EDT) Temp. Heat Index Dew Point Humidity Pressure Visibility Wind Dir Wind Speed Gust Speed Precip Events Conditions
12:51 AM 64.9 °F - 57.0 °F 75% 29.99 in 10.0 mi WSW 6.9 mph - N/A   Scattered Clouds
1:51 AM 64.9 °F - 59.0 °F 81% 29.99 in 10.0 mi West 5.8 mph - N/A   Partly Cloudy
2:51 AM 64.0 °F - 57.9 °F 80% 29.99 in 10.0 mi West 5.8 mph - N/A   Partly Cloudy
3:51 AM 64.0 °F - 59.0 °F 84% 29.99 in 10.0 mi SW 4.6 mph - N/A   Mostly Cloudy
4:51 AM 64.0 °F - 57.9 °F 80% 29.99 in 10.0 mi WSW 3.5 mph - N/A   Mostly Cloudy
5:51 AM 63.0 °F - 59.0 °F 87% 29.98 in 10.0 mi SW 5.8 mph - N/A   Mostly Cloudy
6:51 AM 66.0 °F - 60.1 °F 81% 29.99 in 10.0 mi WSW 5.8 mph - N/A   Mostly Cloudy
7:51 AM 68.0 °F - 60.1 °F 76% 29.99 in 10.0 mi SW 6.9 mph - N/A   Mostly Cloudy
8:51 AM 68.0 °F - 57.9 °F 70% 29.98 in 10.0 mi WSW 6.9 mph - N/A   Overcast
9:51 AM 70.0 °F - 59.0 °F 68% 29.96 in 10.0 mi SSW 3.5 mph - N/A   Mostly Cloudy
10:51 AM 71.1 °F - 57.9 °F 63% 29.94 in 10.0 mi South 11.5 mph - 0.00 in   Mostly Cloudy
11:51 AM 73.0 °F - 57.9 °F 59% 29.91 in 10.0 mi South 11.5 mph - N/A   Mostly Cloudy
12:51 PM 73.0 °F - 60.1 °F 64% 29.89 in 10.0 mi South 9.2 mph - N/A   Mostly Cloudy
1:51 PM 73.9 °F - 61.0 °F 64% 29.85 in 10.0 mi South 10.4 mph - N/A   Mostly Cloudy
2:51 PM 71.1 °F - 64.0 °F 78% 29.82 in 10.0 mi South 17.3 mph 27.6 mph N/A   Overcast
3:51 PM 72.0 °F - 64.9 °F 78% 29.81 in 9.0 mi South 11.5 mph - N/A   Overcast
4:51 PM 78.1 °F - 64.0 °F 62% 29.81 in 10.0 mi WSW 16.1 mph 20.7 mph N/A   Overcast
5:51 PM 78.1 °F - 61.0 °F 56% 29.79 in 10.0 mi SW 17.3 mph - N/A   Overcast
6:51 PM 80.1 °F 81.1 °F 61.0 °F 52% 29.79 in 10.0 mi West 25.3 mph 31.1 mph N/A   Mostly Cloudy
7:51 PM 78.1 °F - 61.0 °F 56% 29.81 in 10.0 mi West 23.0 mph 31.1 mph N/A   Mostly Cloudy
8:51 PM 75.0 °F - 62.1 °F 64% 29.82 in 10.0 mi WSW 15.0 mph - N/A   Mostly Cloudy
9:51 PM 73.9 °F - 63.0 °F 68% 29.84 in 10.0 mi WSW 13.8 mph - N/A   Scattered Clouds
10:51 PM 73.0 °F - 64.0 °F 73% 29.86 in 10.0 mi WSW 10.4 mph - N/A   Scattered Clouds
11:51 PM 69.1 °F - 64.0 °F 84% 29.86 in 10.0 mi SW 6.9 mph - N/A   Scattered Clouds